DW9584 Weather Reports


Display with metric or nautical units.
time (UTC)temp
F
wind
direction
speed
MPH
gust
MPH
rain 1hr
in
rain 24hr
in
rain mn
in
humidity
%
barometer
mb
20260510010021 54 1 0.0 0.0 0.00 0.00 0.00 89 1010.5
20260510004515 55 1 0.0 0.0 0.00 0.00 0.00 88 1010.3
20260510003043 55 1 0.0 0.0 0.00 0.00 0.00 87 1010.3
20260510001528 56 1 0.0 0.0 0.00 0.00 0.00 85 1010.3
20260510000030 56 1 0.0 0.0 0.00 0.00 0.00 84 1010.3
20260509234536 57 1 0.0 0.0 0.00 0.00 0.00 82 1010.3
20260509233035 58 1 0.0 0.0 0.00 0.00 0.00 80 1010.2
20260509231528 59 1 0.0 0.0 0.00 0.00 0.00 79 1010.1
20260509230021 59 1 0.0 0.0 0.00 0.00 0.00 77 1009.9
20260509224518 59 1 0.0 1.0 0.00 0.00 0.00 80 1010.1
20260509223032 59 1 0.0 3.0 0.00 0.00 0.00 79 1010.1
20260509221529 59 357 0.0 2.0 0.00 0.00 0.00 80 1010.0
20260509220029 58 357 0.0 0.0 0.00 0.00 0.00 81 1010.2
20260509214528 58 53 0.0 2.0 0.00 0.00 0.00 81 1010.2
20260509213027 58 6 0.0 2.0 0.00 0.00 0.00 82 1010.4
20260509211523 58 359 0.0 1.0 0.00 0.00 0.00 81 1010.3
20260509210026 59 359 0.0 0.0 0.00 0.00 0.00 78 1010.3
20260509204520 60 359 1.0 2.0 0.00 0.00 0.00 76 1010.4
20260509203024 60 297 0.0 5.0 0.00 0.00 0.00 75 1010.2
20260509201518 60 346 0.0 4.0 0.00 0.00 0.00 76 1010.3
20260509200013 59 54 1.0 4.0 0.00 0.00 0.00 77 1010.0
20260509194527 59 259 1.0 5.0 0.00 0.00 0.00 77 1010.4
20260509193007 60 360 1.0 2.0 0.00 0.00 0.00 78 1010.4
20260509191526 59 332 1.0 7.0 0.00 0.00 0.00 78 1010.7
20260509190026 59 344 0.0 5.0 0.00 0.00 0.00 75 1010.9
20260509184532 58 171 1.0 5.0 0.00 0.00 0.00 74 1011.0
20260509183030 59 191 3.0 7.0 0.00 0.00 0.00 72 1011.0
20260509181520 60 311 2.0 8.0 0.00 0.00 0.00 72 1011.1
20260509180019 61 88 1.0 5.0 0.00 0.00 0.00 70 1011.2
20260509174512 62 293 0.0 4.0 0.00 0.00 0.00 68 1011.2
20260509173030 63 198 0.0 2.0 0.00 0.00 0.00 66 1011.0
20260509171534 62 294 1.0 5.0 0.00 0.00 0.00 67 1011.0
20260509170026 63 203 1.0 5.0 0.00 0.00 0.00 65 1011.1
20260509164523 64 356 0.0 3.0 0.00 0.00 0.00 65 1011.2
20260509163048 63 198 0.0 5.0 0.00 0.00 0.00 64 1011.2
20260509161527 64 174 1.0 7.0 0.00 0.00 0.00 65 1011.3
20260509160018 64 304 0.0 4.0 0.00 0.00 0.00 66 1011.5
20260509154516 63 293 0.0 2.0 0.00 0.00 0.00 67 1011.7
20260509153028 63 226 0.0 2.0 0.00 0.00 0.00 68 1011.9
20260509151528 62 350 0.0 5.0 0.00 0.00 0.00 69 1012.1
20260509150028 62 217 0.0 3.0 0.00 0.00 0.00 68 1012.1
20260509144526 62 167 0.0 4.0 0.00 0.00 0.00 68 1012.0
20260509143033 63 280 1.0 7.0 0.00 0.00 0.00 68 1011.9
20260509141526 63 226 1.0 4.0 0.00 0.00 0.00 70 1011.9
20260509140021 62 193 1.0 5.0 0.00 0.00 0.00 73 1011.7
20260509134528 61 152 0.0 2.0 0.00 0.00 0.00 75 1011.8
20260509133026 61 300 0.0 3.0 0.00 0.00 0.00 75 1011.7
20260509131526 60 215 0.0 3.0 0.00 0.00 0.00 77 1011.8
20260509130026 60 354 0.0 2.0 0.00 0.00 0.00 78 1012.1
20260509124535 59 227 0.0 4.0 0.00 0.00 0.00 79 1012.2
20260509123027 59 174 0.0 3.0 0.00 0.00 0.00 80 1012.1
20260509121535 58 72 0.0 3.0 0.00 0.00 0.00 80 1012.1
20260509120003 57 49 0.0 3.0 0.00 0.00 0.00 81 1012.1
20260509114542 57 224 0.0 2.0 0.00 0.00 0.00 81 1012.1
20260509113019 56 67 0.0 2.0 0.00 0.00 0.00 82 1012.0
20260509111516 56 152 0.0 2.0 0.00 0.00 0.00 82 1012.0
20260509110013 56 135 0.0 3.0 0.00 0.00 0.00 82 1012.2
20260509104510 55 140 0.0 1.0 0.00 0.00 0.00 82 1011.9
20260509103008 54 131 0.0 1.0 0.00 0.00 0.00 82 1011.9
20260509101507 53 134 0.0 0.0 0.00 0.00 0.00 81 1011.7
20260509100005 53 134 0.0 1.0 0.00 0.00 0.00 81 1011.8
20260509094525 53 140 0.0 0.0 0.00 0.00 0.00 80 1011.7
20260509093022 53 140 0.0 1.0 0.00 0.00 0.00 79 1011.7
20260509091520 53 140 0.0 0.0 0.00 0.00 0.00 78 1011.7
20260509090041 54 140 0.0 0.0 0.00 0.00 0.00 76 1011.8
20260509084520 54 142 0.0 1.0 0.00 0.00 0.00 76 1011.9
20260509083021 54 114 0.0 1.0 0.00 0.00 0.00 76 1011.9
20260509081506 54 192 0.0 2.0 0.00 0.00 0.00 75 1012.0
20260509080025 53 97 0.0 1.0 0.00 0.00 0.00 75 1012.0
20260509074533 53 162 0.0 2.0 0.00 0.00 0.00 75 1012.2
20260509073022 53 143 0.0 0.0 0.00 0.00 0.00 74 1012.2
20260509071522 54 143 0.0 2.0 0.00 0.00 0.00 72 1012.3
20260509070018 54 191 0.0 2.0 0.00 0.00 0.00 70 1012.3
20260509064516 55 179 0.0 0.0 0.00 0.00 0.00 69 1012.4
20260509063011 55 179 0.0 2.0 0.00 0.00 0.00 68 1012.7
20260509061528 56 179 0.0 0.0 0.00 0.00 0.00 67 1012.9
20260509060026 57 179 0.0 2.0 0.00 0.00 0.00 64 1012.8
20260509054524 58 179 0.0 2.0 0.00 0.00 0.00 62 1012.9
20260509053035 58 165 0.0 2.0 0.00 0.00 0.00 60 1013.0
20260509051524 58 212 0.0 4.0 0.00 0.00 0.00 61 1013.2
20260509050041 58 130 0.0 4.0 0.00 0.00 0.00 61 1013.3
20260509044516 58 179 0.0 2.0 0.00 0.00 0.00 61 1013.3
20260509043026 59 155 0.0 2.0 0.00 0.00 0.00 57 1013.3
20260509041528 59 235 0.0 3.0 0.00 0.00 0.00 57 1013.1
20260509040030 59 187 0.0 0.0 0.00 0.00 0.00 56 1013.2
20260509034528 60 184 0.0 2.0 0.00 0.00 0.00 55 1013.2
20260509033034 61 175 0.0 2.0 0.00 0.00 0.00 53 1013.3
20260509031531 61 181 0.0 2.0 0.00 0.00 0.00 52 1013.3
20260509030022 61 214 0.0 2.0 0.00 0.00 0.00 54 1013.1
20260509024518 61 196 0.0 3.0 0.00 0.00 0.00 52 1012.8
20260509023016 62 229 1.0 4.0 0.00 0.00 0.00 50 1013.1
20260509021516 62 293 0.0 3.0 0.00 0.00 0.00 51 1013.1
20260509020010 62 188 0.0 3.0 0.00 0.00 0.00 50 1013.0
20260509014527 62 224 0.0 2.0 0.00 0.00 0.00 49 1013.0
20260509013028 62 312 1.0 2.0 0.00 0.00 0.00 48 1012.8
20260509011525 62 234 0.0 2.0 0.00 0.00 0.00 48 1012.6